,,PA_Meas_PMT16A,,PR_Meas_QMR101_102,,RH_Meas_QMH101,,SR_Meas_QMS101,,TA_Meas_QMH101,,GenWind,,GenWind,
time,status,PA,status,PR,status,RH,status,SR,status,TA,status,DirAvg,status,SpdAvg,
2012-05-16, 00:00:05,VALID,917.758,VALID,0,VALID,92.6321,VALID,0,VALID,21.2616,VALID,357,VALID,0,
2012-05-16, 00:01:05,VALID,917.733,VALID,0,VALID,92.7084,VALID,0,VALID,21.2015,VALID,357,VALID,0,
2012-05-16, 00:02:05,VALID,917.69,VALID,0,VALID,92.9904,VALID,0.107441,VALID,21.1624,VALID,357,VALID,0,
2012-05-16, 00:03:05,VALID,917.654,VALID,0,VALID,93.3259,VALID,0,VALID,21.164,VALID,357,VALID,0,
2012-05-16, 00:04:05,VALID,917.62,VALID,0,VALID,93.5012,VALID,0,VALID,21.1429,VALID,357,VALID,0,
2012-05-16, 00:05:05,VALID,917.596,VALID,0,VALID,93.4859,VALID,0,VALID,21.1429,VALID,357,VALID,0,
2012-05-16, 00:06:05,VALID,917.547,VALID,0,VALID,93.4555,VALID,0,VALID,21.1055,VALID,357,VALID,0,
2012-05-16, 00:07:05,VALID,917.497,VALID,0,VALID,93.6994,VALID,0,VALID,21.0649,VALID,357,VALID,0,
2012-05-16, 00:08:05,VALID,917.481,VALID,0,VALID,93.8824,VALID,0,VALID,21.086,VALID,357,VALID,0,
2012-05-16, 00:09:05,VALID,917.453,VALID,0,VALID,94.0196,VALID,0,VALID,21.125,VALID,357,VALID,0,
2012-05-16, 00:10:05,VALID,917.405,VALID,0,VALID,94.073,VALID,0,VALID,21.125,VALID,357,VALID,0,
2012-05-16, 00:11:05,VALID,917.359,VALID,0,VALID,94.0196,VALID,0.107441,VALID,21.1234,VALID,357,VALID,0,
2012-05-16, 00:12:05,VALID,917.328,VALID,0,VALID,93.9891,VALID,0,VALID,21.1234,VALID,357,VALID,0,
2012-05-16, 00:13:05,VALID,917.292,VALID,0,VALID,93.8747,VALID,0,VALID,21.0844,VALID,357,VALID,0,
2012-05-16, 00:14:05,VALID,917.278,VALID,0,VALID,93.7985,VALID,0,VALID,21.1055,VALID,357,VALID,0,
2012-05-16, 00:15:05,VALID,917.246,VALID,0,VALID,93.6842,VALID,0,VALID,21.0844,VALID,357,VALID,0,
2012-05-16, 00:16:05,VALID,917.219,VALID,0,VALID,93.6308,VALID,0,VALID,21.0649,VALID,357,VALID,0,
2012-05-16, 00:17:05,VALID,917.227,VALID,0,VALID,93.646,VALID,0,VALID,21.086,VALID,357,VALID,0,
2012-05-16, 00:18:05,VALID,917.181,VALID,0,VALID,93.6003,VALID,0,VALID,21.0454,VALID,357,VALID,0,
2012-05-16, 00:19:05,VALID,917.175,VALID,0,VALID,93.5393,VALID,0,VALID,21.047,VALID,357,VALID,0,
2012-05-16, 00:20:05,VALID,917.162,VALID,0,VALID,93.6765,VALID,0.107441,VALID,21.0064,VALID,357,VALID,0,
2012-05-16, 00:21:05,VALID,917.164,VALID,0,VALID,93.7833,VALID,0.107441,VALID,21.0259,VALID,357,VALID,0,
2012-05-16, 00:22:05,VALID,917.118,VALID,0,VALID,93.9815,VALID,0,VALID,21.0064,VALID,356,VALID,0,
2012-05-16, 00:23:05,VALID,917.087,VALID,0,VALID,94.1339,VALID,0,VALID,21.0665,VALID,356,VALID,0,
2012-05-16, 00:24:05,VALID,917.078,VALID,0,VALID,94.2178,VALID,0,VALID,21.0649,VALID,356,VALID,0,
2012-05-16, 00:25:05,VALID,917.044,VALID,0,VALID,94.2712,VALID,0,VALID,21.0649,VALID,356,VALID,0,
2012-05-16, 00:26:05,VALID,917.056,VALID,0,VALID,94.3321,VALID,0,VALID,21.086,VALID,356,VALID,0,
2012-05-16, 00:27:05,VALID,917.037,VALID,0,VALID,94.3245,VALID,0,VALID,21.0454,VALID,356,VALID,0,
2012-05-16, 00:28:05,VALID,917.047,VALID,0,VALID,94.2254,VALID,0,VALID,21.0665,VALID,356,VALID,0,
2012-05-16, 00:29:05,VALID,917.029,VALID,0,VALID,94.2635,VALID,0,VALID,21.047,VALID,357,VALID,0,
2012-05-16, 00:30:05,VALID,917.01,VALID,0,VALID,94.2712,VALID,0,VALID,21.0259,VALID,356,VALID,0,
2012-05-16, 00:31:05,VALID,916.948,VALID,0,VALID,94.2788,VALID,0,VALID,21.0259,VALID,357,VALID,0,
2012-05-16, 00:32:05,VALID,916.92,VALID,0,VALID,94.3169,VALID,0,VALID,21.047,VALID,356,VALID,0,
2012-05-16, 00:33:05,VALID,916.871,VALID,0,VALID,94.2178,VALID,0,VALID,21.0454,VALID,357,VALID,0,
2012-05-16, 00:34:05,VALID,916.828,VALID,0,VALID,94.1492,VALID,0,VALID,21.0259,VALID,356,VALID,0,
2012-05-16, 00:35:05,VALID,916.811,VALID,0,VALID,94.012,VALID,0,VALID,20.9869,VALID,356,VALID,0,
2012-05-16, 00:36:05,VALID,916.747,VALID,0,VALID,93.9815,VALID,0,VALID,20.93,VALID,356,VALID,0,
2012-05-16, 00:37:05,VALID,916.708,VALID,0,VALID,94.2483,VALID,0,VALID,20.8894,VALID,356,VALID,0,
2012-05-16, 00:38:05,VALID,916.676,VALID,0,VALID,94.4846,VALID,0,VALID,20.9105,VALID,356,VALID,0,
2012-05-16, 00:39:05,VALID,916.634,VALID,0,VALID,94.5837,VALID,0,VALID,20.9089,VALID,356,VALID,0,
2012-05-16, 00:40:05,VALID,916.626,VALID,0,VALID,94.5151,VALID,0.107441,VALID,20.8894,VALID,356,VALID,0,
2012-05-16, 00:41:05,VALID,916.621,VALID,0,VALID,94.5685,VALID,0,VALID,20.8504,VALID,356,VALID,0,
2012-05-16, 00:42:05,VALID,916.609,VALID,0,VALID,94.8048,VALID,0,VALID,20.8699,VALID,357,VALID,0,
2012-05-16, 00:43:05,VALID,916.57,VALID,0,VALID,94.881,VALID,0,VALID,20.891,VALID,356,VALID,0,
2012-05-16, 00:44:05,VALID,916.564,VALID,0,VALID,94.9801,VALID,0,VALID,20.891,VALID,356,VALID,0,
2012-05-16, 00:45:05,VALID,916.507,VALID,0,VALID,95.0945,VALID,0,VALID,20.9105,VALID,356,VALID,0,
2012-05-16, 00:46:05,VALID,916.501,VALID,0,VALID,95.0869,VALID,0,VALID,20.9089,VALID,356,VALID,0,
2012-05-16, 00:47:05,VALID,916.476,VALID,0,VALID,95.186,VALID,0,VALID,20.9105,VALID,356,VALID,0,
2012-05-16, 00:48:05,VALID,916.452,VALID,0,VALID,95.2546,VALID,0.107441,VALID,20.9105,VALID,356,VALID,0,
2012-05-16, 00:49:05,VALID,916.479,VALID,0,VALID,95.3308,VALID,0,VALID,20.8699,VALID,356,VALID,0,
2012-05-16, 00:50:05,VALID,916.427,VALID,0,VALID,95.3613,VALID,0,VALID,20.8504,VALID,356,VALID,0,
2012-05-16, 00:51:05,VALID,916.423,VALID,0,VALID,95.4223,VALID,0,VALID,20.8714,VALID,356,VALID,0,
2012-05-16, 00:52:05,VALID,916.409,VALID,0,VALID,95.4528,VALID,0,VALID,20.8519,VALID,356,VALID,0,
2012-05-16, 00:53:05,VALID,916.406,VALID,0,VALID,95.5062,VALID,0,VALID,20.8504,VALID,356,VALID,0,
2012-05-16, 00:54:05,VALID,916.385,VALID,0,VALID,95.5824,VALID,0,VALID,20.8504,VALID,356,VALID,0,
2012-05-16, 00:55:05,VALID,916.388,VALID,0,VALID,95.651,VALID,0,VALID,20.8504,VALID,356,VALID,0,
2012-05-16, 00:56:05,VALID,916.385,VALID,0,VALID,95.651,VALID,0,VALID,20.891,VALID,356,VALID,0,
2012-05-16, 00:57:05,VALID,916.378,VALID,0,VALID,95.6891,VALID,0.107441,VALID,20.8699,VALID,356,VALID,0,
2012-05-16, 00:58:05,VALID,916.373,VALID,0,VALID,95.6815,VALID,0,VALID,20.8714,VALID,356,VALID,0,
2012-05-16, 00:59:05,VALID,916.353,VALID,0,VALID,95.7044,VALID,0,VALID,20.8519,VALID,7,VALID,0,
2012-05-16, 01:00:05,VALID,916.344,VALID,0,VALID,95.7577,VALID,0,VALID,20.8504,VALID,8,VALID,0,
2012-05-16, 01:01:05,VALID,916.336,VALID,0,VALID,95.7272,VALID,0,VALID,20.8519,VALID,8,VALID,0,
2012-05-16, 01:02:05,VALID,916.332,VALID,0,VALID,95.7654,VALID,0,VALID,20.8113,VALID,8,VALID,0,
2012-05-16, 01:03:05,VALID,916.338,VALID,0,VALID,95.8187,VALID,0,VALID,20.8113,VALID,8,VALID,0,
2012-05-16, 01:04:05,VALID,916.331,VALID,0,VALID,95.8873,VALID,0,VALID,20.8113,VALID,8,VALID,0.0195313,
2012-05-16, 01:05:05,VALID,916.354,VALID,0,VALID,95.9407,VALID,0,VALID,20.8324,VALID,8,VALID,0,
2012-05-16, 01:06:05,VALID,916.356,VALID,0,VALID,95.9864,VALID,0,VALID,20.8113,VALID,299,VALID,0,
2012-05-16, 01:07:05,VALID,916.354,VALID,0,VALID,96.0169,VALID,0,VALID,20.8324,VALID,355,VALID,0,
2012-05-16, 01:08:05,VALID,916.347,VALID,0,VALID,96.0474,VALID,0,VALID,20.8129,VALID,345,VALID,0,
2012-05-16, 01:09:05,VALID,916.31,VALID,0,VALID,96.0855,VALID,0,VALID,20.7934,VALID,10,VALID,0,
2012-05-16, 01:10:05,VALID,916.306,VALID,0,VALID,96.1465,VALID,0,VALID,20.7918,VALID,346,VALID,0,
2012-05-16, 01:11:05,VALID,916.28,VALID,0,VALID,96.1999,VALID,0,VALID,20.7934,VALID,347,VALID,0,
2012-05-16, 01:12:05,VALID,916.264,VALID,0,VALID,96.238,VALID,0,VALID,20.7934,VALID,350,VALID,0,
2012-05-16, 01:13:05,VALID,916.246,VALID,0,VALID,96.238,VALID,0,VALID,20.7934,VALID,330,VALID,0,
2012-05-16, 01:14:05,VALID,916.245,VALID,0,VALID,96.2228,VALID,0,VALID,20.7934,VALID,3,VALID,0,
2012-05-16, 01:15:05,VALID,916.254,VALID,0,VALID,96.2456,VALID,0,VALID,20.7723,VALID,323,VALID,0,
2012-05-16, 01:16:05,VALID,916.238,VALID,0,VALID,96.2761,VALID,0,VALID,20.7934,VALID,323,VALID,0,
2012-05-16, 01:17:05,VALID,916.241,VALID,0,VALID,96.3295,VALID,0,VALID,20.8113,VALID,323,VALID,0,
2012-05-16, 01:18:05,VALID,916.244,VALID,0,VALID,96.3524,VALID,0,VALID,20.8519,VALID,323,VALID,0,
2012-05-16, 01:19:05,VALID,916.203,VALID,0,VALID,96.2914,VALID,0,VALID,20.8519,VALID,323,VALID,0,
2012-05-16, 01:20:05,VALID,916.183,VALID,0,VALID,96.2609,VALID,0,VALID,20.8714,VALID,323,VALID,0,
2012-05-16, 01:21:05,VALID,916.171,VALID,0,VALID,96.2456,VALID,0,VALID,20.8699,VALID,323,VALID,0,
2012-05-16, 01:22:05,VALID,916.123,VALID,0,VALID,96.1999,VALID,0,VALID,20.8894,VALID,323,VALID,0,
2012-05-16, 01:23:05,VALID,916.13,VALID,0,VALID,96.1694,VALID,0,VALID,20.8699,VALID,323,VALID,0,
2012-05-16, 01:24:05,VALID,916.091,VALID,0,VALID,96.116,VALID,0,VALID,20.891,VALID,323,VALID,0,
2012-05-16, 01:25:05,VALID,916.07,VALID,0,VALID,96.1389,VALID,0,VALID,20.891,VALID,323,VALID,0,
2012-05-16, 01:26:05,VALID,916.024,VALID,0,VALID,96.116,VALID,0,VALID,20.891,VALID,323,VALID,0,
2012-05-16, 01:27:05,VALID,915.994,VALID,0,VALID,96.0932,VALID,0.107441,VALID,20.8894,VALID,323,VALID,0,
2012-05-16, 01:28:05,VALID,915.966,VALID,0,VALID,96.0398,VALID,0,VALID,20.891,VALID,323,VALID,0,
2012-05-16, 01:29:05,VALID,915.929,VALID,0,VALID,95.9941,VALID,0,VALID,20.8699,VALID,323,VALID,0,
2012-05-16, 01:30:05,VALID,915.898,VALID,0,VALID,95.9026,VALID,0,VALID,20.8699,VALID,323,VALID,0,
2012-05-16, 01:31:05,VALID,915.85,VALID,0,VALID,95.7882,VALID,0,VALID,20.8519,VALID,324,VALID,0,
2012-05-16, 01:32:05,VALID,915.828,VALID,0,VALID,95.7425,VALID,0,VALID,20.8324,VALID,336,VALID,0,
2012-05-16, 01:33:05,VALID,915.821,VALID,0,VALID,95.712,VALID,0.107441,VALID,20.8113,VALID,336,VALID,0,
2012-05-16, 01:34:05,VALID,915.818,VALID,0,VALID,95.651,VALID,0,VALID,20.8324,VALID,336,VALID,0,
2012-05-16, 01:35:05,VALID,915.778,VALID,0,VALID,95.529,VALID,0.107441,VALID,20.8504,VALID,336,VALID,0,
2012-05-16, 01:36:05,VALID,915.777,VALID,0,VALID,95.4452,VALID,0,VALID,20.8504,VALID,336,VALID,0,
2012-05-16, 01:37:05,VALID,915.773,VALID,0,VALID,95.3689,VALID,0,VALID,20.8894,VALID,336,VALID,0,
2012-05-16, 01:38:05,VALID,915.723,VALID,0,VALID,95.3003,VALID,0,VALID,20.9105,VALID,336,VALID,0,
2012-05-16, 01:39:05,VALID,915.699,VALID,0,VALID,95.2241,VALID,0,VALID,20.9089,VALID,336,VALID,0,
2012-05-16, 01:40:05,VALID,915.675,VALID,0,VALID,95.1174,VALID,0,VALID,20.8894,VALID,336,VALID,0,
2012-05-16, 01:41:05,VALID,915.68,VALID,0,VALID,95.0792,VALID,0,VALID,20.93,VALID,336,VALID,0,
2012-05-16, 01:42:05,VALID,915.719,VALID,0,VALID,95.0259,VALID,0,VALID,20.93,VALID,336,VALID,0,
2012-05-16, 01:43:05,VALID,915.717,VALID,0,VALID,95.003,VALID,0,VALID,20.9105,VALID,336,VALID,0,
2012-05-16, 01:44:05,VALID,915.664,VALID,0,VALID,95.0335,VALID,0,VALID,20.891,VALID,336,VALID,0,
2012-05-16, 01:45:05,VALID,915.679,VALID,0,VALID,95.0792,VALID,0,VALID,20.8699,VALID,336,VALID,0,
2012-05-16, 01:46:05,VALID,915.672,VALID,0,VALID,95.0335,VALID,0,VALID,20.8714,VALID,336,VALID,0,
2012-05-16, 01:47:05,VALID,915.658,VALID,0,VALID,95.0792,VALID,0,VALID,20.8714,VALID,336,VALID,0,
2012-05-16, 01:48:05,VALID,915.697,VALID,0,VALID,95.0488,VALID,0,VALID,20.8504,VALID,337,VALID,0,
2012-05-16, 01:49:05,VALID,915.683,VALID,0,VALID,95.1021,VALID,0,VALID,20.8714,VALID,360,VALID,0,
2012-05-16, 01:50:05,VALID,915.71,VALID,0,VALID,95.0945,VALID,0,VALID,20.8714,VALID,356,VALID,0,
2012-05-16, 01:51:05,VALID,915.716,VALID,0,VALID,95.0945,VALID,0,VALID,20.9105,VALID,356,VALID,0,
2012-05-16, 01:52:05,VALID,915.745,VALID,0,VALID,95.003,VALID,0,VALID,20.8699,VALID,356,VALID,0,
2012-05-16, 01:53:05,VALID,915.739,VALID,0,VALID,94.942,VALID,0,VALID,20.891,VALID,356,VALID,0,
2012-05-16, 01:54:05,VALID,915.766,VALID,0,VALID,94.8658,VALID,0,VALID,20.8504,VALID,356,VALID,0,
2012-05-16, 01:55:05,VALID,915.765,VALID,0,VALID,94.8887,VALID,0,VALID,20.8519,VALID,356,VALID,0,
2012-05-16, 01:56:05,VALID,915.786,VALID,0,VALID,94.942,VALID,0,VALID,20.8504,VALID,356,VALID,0,
2012-05-16, 01:57:05,VALID,915.816,VALID,0,VALID,94.9801,VALID,0,VALID,20.8714,VALID,356,VALID,0,
2012-05-16, 01:58:05,VALID,915.832,VALID,0,VALID,94.9344,VALID,0,VALID,20.8714,VALID,356,VALID,0,
2012-05-16, 01:59:05,VALID,915.833,VALID,0,VALID,94.9801,VALID,0,VALID,20.8714,VALID,356,VALID,0,
2012-05-16, 02:00:05,VALID,915.86,VALID,0,VALID,95.0106,VALID,0,VALID,20.891,VALID,356,VALID,0,
2012-05-16, 02:01:05,VALID,915.88,VALID,0,VALID,95.0488,VALID,0,VALID,20.891,VALID,356,VALID,0,
2012-05-16, 02:02:05,VALID,915.883,VALID,0,VALID,94.9039,VALID,0,VALID,20.8894,VALID,356,VALID,0,
2012-05-16, 02:03:05,VALID,915.928,VALID,0,VALID,94.9268,VALID,0,VALID,20.9105,VALID,356,VALID,0,
2012-05-16, 02:04:05,VALID,915.907,VALID,0,VALID,94.8887,VALID,0,VALID,20.9105,VALID,356,VALID,0,
2012-05-16, 02:05:05,VALID,915.915,VALID,0,VALID,94.9192,VALID,0,VALID,20.93,VALID,356,VALID,0,
2012-05-16, 02:06:05,VALID,915.912,VALID,0,VALID,94.82,VALID,0,VALID,20.9089,VALID,356,VALID,0,
2012-05-16, 02:07:05,VALID,915.897,VALID,0,VALID,94.8124,VALID,0,VALID,20.9105,VALID,356,VALID,0,
2012-05-16, 02:08:05,VALID,915.911,VALID,0,VALID,94.8353,VALID,0,VALID,20.93,VALID,356,VALID,0,
2012-05-16, 02:09:05,VALID,915.913,VALID,0,VALID,94.7819,VALID,0,VALID,20.93,VALID,356,VALID,0,
2012-05-16, 02:10:05,VALID,915.903,VALID,0,VALID,94.7438,VALID,0,VALID,20.9105,VALID,355,VALID,0,
2012-05-16, 02:11:05,VALID,915.931,VALID,0,VALID,94.7286,VALID,0,VALID,20.9105,VALID,355,VALID,0,
2012-05-16, 02:12:05,VALID,915.908,VALID,0,VALID,94.82,VALID,0,VALID,20.93,VALID,355,VALID,0,
2012-05-16, 02:13:05,VALID,915.87,VALID,0,VALID,94.8353,VALID,0,VALID,20.9089,VALID,355,VALID,0,
2012-05-16, 02:14:05,VALID,915.921,VALID,0,VALID,94.8505,VALID,0,VALID,20.93,VALID,355,VALID,0,
2012-05-16, 02:15:05,VALID,915.934,VALID,0,VALID,94.7514,VALID,0,VALID,20.93,VALID,348,VALID,0,
2012-05-16, 02:16:05,VALID,915.948,VALID,0,VALID,94.7514,VALID,0,VALID,20.9105,VALID,344,VALID,0,
2012-05-16, 02:17:04,VALID,915.94,VALID,0,VALID,94.6981,VALID,0,VALID,20.9105,VALID,344,VALID,0,
2012-05-16, 02:18:04,VALID,915.961,VALID,0,VALID,94.7057,VALID,0,VALID,20.9105,VALID,7,VALID,0,
2012-05-16, 02:19:04,VALID,915.969,VALID,0,VALID,94.7057,VALID,0,VALID,20.912,VALID,344,VALID,0,
2012-05-16, 02:20:04,VALID,915.984,VALID,0,VALID,94.6828,VALID,0,VALID,20.8714,VALID,344,VALID,0,
2012-05-16, 02:21:04,VALID,915.976,VALID,0,VALID,94.6828,VALID,0,VALID,20.8714,VALID,344,VALID,0,
2012-05-16, 02:22:04,VALID,915.978,VALID,0,VALID,94.7362,VALID,0,VALID,20.8714,VALID,344,VALID,0,
2012-05-16, 02:23:04,VALID,916.041,VALID,0,VALID,94.7362,VALID,0,VALID,20.891,VALID,344,VALID,0,
2012-05-16, 02:24:04,VALID,916.048,VALID,0,VALID,94.6828,VALID,0,VALID,20.891,VALID,344,VALID,0,
2012-05-16, 02:25:04,VALID,916.022,VALID,0,VALID,94.6828,VALID,0,VALID,20.891,VALID,2,VALID,0,
2012-05-16, 02:26:04,VALID,916.034,VALID,0,VALID,94.7286,VALID,0,VALID,20.8714,VALID,2,VALID,0,
2012-05-16, 02:27:04,VALID,916.051,VALID,0,VALID,94.7438,VALID,0,VALID,20.8894,VALID,2,VALID,0,
2012-05-16, 02:28:04,VALID,916.054,VALID,0,VALID,94.6676,VALID,0,VALID,20.891,VALID,2,VALID,0,
2012-05-16, 02:29:04,VALID,916.027,VALID,0,VALID,94.6218,VALID,0,VALID,20.8699,VALID,346,VALID,0,
2012-05-16, 02:30:04,VALID,916.072,VALID,0,VALID,94.66,VALID,0,VALID,20.8894,VALID,12,VALID,0,
2012-05-16, 02:31:04,VALID,916.057,VALID,0,VALID,94.66,VALID,0,VALID,20.9089,VALID,11,VALID,0,
2012-05-16, 02:32:04,VALID,916.046,VALID,0,VALID,94.5913,VALID,0,VALID,20.93,VALID,344,VALID,0,
2012-05-16, 02:33:04,VALID,916.061,VALID,0,VALID,94.5685,VALID,0,VALID,20.9495,VALID,342,VALID,0,
2012-05-16, 02:34:04,VALID,916.069,VALID,0,VALID,94.5075,VALID,0,VALID,20.9495,VALID,342,VALID,0,
2012-05-16, 02:35:04,VALID,916.08,VALID,0,VALID,94.5151,VALID,0,VALID,20.9495,VALID,342,VALID,0,
2012-05-16, 02:36:04,VALID,916.109,VALID,0,VALID,94.4541,VALID,0,VALID,20.969,VALID,342,VALID,0,
2012-05-16, 02:37:04,VALID,916.081,VALID,0,VALID,94.3321,VALID,0,VALID,20.9284,VALID,342,VALID,0,
2012-05-16, 02:38:04,VALID,916.112,VALID,0,VALID,94.3321,VALID,0,VALID,20.9284,VALID,342,VALID,0,
2012-05-16, 02:39:04,VALID,916.101,VALID,0,VALID,94.3093,VALID,0,VALID,20.93,VALID,342,VALID,0,
2012-05-16, 02:40:04,VALID,916.079,VALID,0,VALID,94.3474,VALID,0,VALID,20.8894,VALID,343,VALID,0,
2012-05-16, 02:41:04,VALID,916.116,VALID,0,VALID,94.4008,VALID,0,VALID,20.9105,VALID,343,VALID,0,
2012-05-16, 02:42:04,VALID,916.078,VALID,0,VALID,94.3703,VALID,0,VALID,20.891,VALID,346,VALID,0,
2012-05-16, 02:43:04,VALID,916.111,VALID,0,VALID,94.4313,VALID,0,VALID,20.891,VALID,356,VALID,0,
2012-05-16, 02:44:04,VALID,916.104,VALID,0,VALID,94.4236,VALID,0,VALID,20.9105,VALID,356,VALID,0,
2012-05-16, 02:45:04,VALID,916.096,VALID,0,VALID,94.355,VALID,0,VALID,20.8894,VALID,356,VALID,0,
2012-05-16, 02:46:04,VALID,916.082,VALID,0,VALID,94.3245,VALID,0,VALID,20.891,VALID,356,VALID,0,
2012-05-16, 02:47:04,VALID,916.079,VALID,0,VALID,94.2635,VALID,0,VALID,20.891,VALID,356,VALID,0,
2012-05-16, 02:48:04,VALID,916.099,VALID,0,VALID,94.1949,VALID,0,VALID,20.8714,VALID,356,VALID,0,
2012-05-16, 02:49:04,VALID,916.053,VALID,0,VALID,94.1263,VALID,0,VALID,20.8714,VALID,356,VALID,0,
2012-05-16, 02:50:04,VALID,916.049,VALID,0,VALID,94.1034,VALID,0,VALID,20.8699,VALID,356,VALID,0,
2012-05-16, 02:51:04,VALID,916.058,VALID,0,VALID,94.0653,VALID,0,VALID,20.891,VALID,356,VALID,0,
2012-05-16, 02:52:04,VALID,916.051,VALID,0,VALID,94.012,VALID,0,VALID,20.891,VALID,356,VALID,0,
2012-05-16, 02:53:04,VALID,916.017,VALID,0,VALID,93.9052,VALID,0,VALID,20.891,VALID,356,VALID,0,
2012-05-16, 02:54:04,VALID,916.046,VALID,0,VALID,93.89,VALID,0,VALID,20.891,VALID,356,VALID,0,
2012-05-16, 02:55:04,VALID,916.035,VALID,0,VALID,93.7756,VALID,0,VALID,20.891,VALID,356,VALID,0,
2012-05-16, 02:56:04,VALID,916.044,VALID,0,VALID,93.7299,VALID,0.107441,VALID,20.8894,VALID,356,VALID,0,
2012-05-16, 02:57:04,VALID,916.013,VALID,0,VALID,93.6689,VALID,0.107441,VALID,20.8894,VALID,356,VALID,0,
2012-05-16, 02:58:04,VALID,916.012,VALID,0,VALID,93.6003,VALID,0.107441,VALID,20.8894,VALID,333,VALID,0,
2012-05-16, 02:59:04,VALID,915.997,VALID,0,VALID,93.4707,VALID,0.107441,VALID,20.9089,VALID,333,VALID,0,
2012-05-16, 03:00:04,VALID,915.996,VALID,0,VALID,93.364,VALID,0.107441,VALID,20.8894,VALID,333,VALID,0,
2012-05-16, 03:01:04,VALID,915.98,VALID,0,VALID,93.3487,VALID,0.107441,VALID,20.8894,VALID,333,VALID,0,
2012-05-16, 03:02:04,VALID,915.967,VALID,0,VALID,93.4173,VALID,0.107441,VALID,20.9089,VALID,333,VALID,0,
2012-05-16, 03:03:04,VALID,915.95,VALID,0,VALID,93.4326,VALID,0.107441,VALID,20.9089,VALID,333,VALID,0,
2012-05-16, 03:04:04,VALID,915.944,VALID,0,VALID,93.5088,VALID,0.107441,VALID,20.9089,VALID,333,VALID,0,
2012-05-16, 03:05:04,VALID,915.934,VALID,0,VALID,93.5012,VALID,0,VALID,20.9089,VALID,333,VALID,0,
2012-05-16, 03:06:04,VALID,915.913,VALID,0,VALID,93.3716,VALID,0.107441,VALID,20.93,VALID,333,VALID,0,
2012-05-16, 03:07:04,VALID,915.915,VALID,0,VALID,93.3182,VALID,0.107441,VALID,20.9089,VALID,333,VALID,0,
2012-05-16, 03:08:04,VALID,915.912,VALID,0,VALID,93.2877,VALID,0.107441,VALID,20.9284,VALID,333,VALID,0,
2012-05-16, 03:09:04,VALID,915.884,VALID,0,VALID,93.0743,VALID,0.107441,VALID,20.9268,VALID,333,VALID,0,
2012-05-16, 03:10:04,VALID,915.891,VALID,0,VALID,92.8075,VALID,0.107441,VALID,20.9479,VALID,333,VALID,0,
2012-05-16, 03:11:04,VALID,915.86,VALID,0,VALID,92.7084,VALID,0,VALID,20.969,VALID,333,VALID,0,
2012-05-16, 03:12:04,VALID,915.861,VALID,0,VALID,92.6855,VALID,0,VALID,20.9885,VALID,333,VALID,0,
2012-05-16, 03:13:04,VALID,915.849,VALID,0,VALID,92.6626,VALID,0,VALID,21.008,VALID,333,VALID,0,
2012-05-16, 03:14:04,VALID,915.861,VALID,0,VALID,92.5483,VALID,0,VALID,21.047,VALID,333,VALID,0,
2012-05-16, 03:15:04,VALID,915.858,VALID,0,VALID,92.1366,VALID,0,VALID,21.0275,VALID,333,VALID,0,
2012-05-16, 03:16:04,VALID,915.832,VALID,0,VALID,91.9994,VALID,0,VALID,21.047,VALID,333,VALID,0,
2012-05-16, 03:17:04,VALID,915.816,VALID,0,VALID,91.885,VALID,0,VALID,21.0665,VALID,333,VALID,0,
2012-05-16, 03:18:04,VALID,915.822,VALID,0,VALID,91.7173,VALID,0,VALID,21.1055,VALID,333,VALID,0,
2012-05-16, 03:19:04,VALID,915.822,VALID,0,VALID,91.6792,VALID,0,VALID,21.1055,VALID,333,VALID,0,
2012-05-16, 03:20:04,VALID,915.784,VALID,0,VALID,91.6868,VALID,0,VALID,21.125,VALID,333,VALID,0,
2012-05-16, 03:21:04,VALID,915.759,VALID,0,VALID,91.7631,VALID,0,VALID,21.125,VALID,333,VALID,0,
2012-05-16, 03:22:04,VALID,915.772,VALID,0,VALID,91.8393,VALID,0,VALID,21.1266,VALID,333,VALID,0,
2012-05-16, 03:23:04,VALID,915.743,VALID,0,VALID,91.9231,VALID,0,VALID,21.1445,VALID,333,VALID,0,
2012-05-16, 03:24:04,VALID,915.742,VALID,0,VALID,92.0146,VALID,0,VALID,21.164,VALID,333,VALID,0,
2012-05-16, 03:25:04,VALID,915.727,VALID,0,VALID,92.0985,VALID,0,VALID,21.1429,VALID,333,VALID,0,
2012-05-16, 03:26:04,VALID,915.688,VALID,0,VALID,92.0832,VALID,0,VALID,21.164,VALID,333,VALID,0,
2012-05-16, 03:27:04,VALID,915.705,VALID,0,VALID,91.9765,VALID,0,VALID,21.1055,VALID,333,VALID,0,
2012-05-16, 03:28:04,VALID,915.687,VALID,0,VALID,92.3119,VALID,0,VALID,21.086,VALID,333,VALID,0,
2012-05-16, 03:29:04,VALID,915.677,VALID,0,VALID,92.3958,VALID,0,VALID,21.086,VALID,333,VALID,0,
2012-05-16, 03:30:04,VALID,915.633,VALID,0,VALID,92.6016,VALID,0,VALID,21.0665,VALID,333,VALID,0,
2012-05-16, 03:31:04,VALID,915.633,VALID,0,VALID,92.6016,VALID,0,VALID,21.0454,VALID,333,VALID,0,
2012-05-16, 03:32:04,VALID,915.637,VALID,0,VALID,92.7236,VALID,0.107441,VALID,21.047,VALID,333,VALID,0,
2012-05-16, 03:33:04,VALID,915.606,VALID,0,VALID,92.8913,VALID,0,VALID,21.047,VALID,333,VALID,0,
2012-05-16, 03:34:04,VALID,915.608,VALID,0,VALID,92.9599,VALID,0,VALID,21.0259,VALID,333,VALID,0,
2012-05-16, 03:35:04,VALID,915.593,VALID,0,VALID,93.0667,VALID,0,VALID,21.0454,VALID,333,VALID,0,
2012-05-16, 03:36:04,VALID,915.592,VALID,0,VALID,93.0819,VALID,0,VALID,21.0665,VALID,333,VALID,0,
2012-05-16, 03:37:04,VALID,915.589,VALID,0,VALID,93.1505,VALID,0,VALID,21.047,VALID,333,VALID,0,
2012-05-16, 03:38:04,VALID,915.604,VALID,0,VALID,93.2268,VALID,0,VALID,21.047,VALID,333,VALID,0,
2012-05-16, 03:39:04,VALID,915.615,VALID,0,VALID,93.2649,VALID,0,VALID,21.0275,VALID,333,VALID,0,
2012-05-16, 03:40:04,VALID,915.607,VALID,0,VALID,93.3868,VALID,0,VALID,20.9869,VALID,333,VALID,0,
2012-05-16, 03:41:04,VALID,915.607,VALID,0,VALID,93.5469,VALID,0,VALID,20.9885,VALID,333,VALID,0,
2012-05-16, 03:42:04,VALID,915.628,VALID,0,VALID,93.7375,VALID,0,VALID,20.9901,VALID,333,VALID,0,
2012-05-16, 03:43:04,VALID,915.635,VALID,0,VALID,93.89,VALID,0,VALID,20.9885,VALID,333,VALID,0,
2012-05-16, 03:44:04,VALID,915.6,VALID,0,VALID,93.9662,VALID,0,VALID,20.9885,VALID,333,VALID,0,
2012-05-16, 03:45:04,VALID,915.585,VALID,0,VALID,94.0806,VALID,0,VALID,20.9869,VALID,333,VALID,0,
2012-05-16, 03:46:04,VALID,915.591,VALID,0,VALID,94.012,VALID,0,VALID,21.008,VALID,333,VALID,0,
2012-05-16, 03:47:04,VALID,915.554,VALID,0,VALID,94.0501,VALID,0,VALID,20.9885,VALID,333,VALID,0,
2012-05-16, 03:48:04,VALID,915.562,VALID,0,VALID,93.9738,VALID,0,VALID,21.008,VALID,333,VALID,0,
2012-05-16, 03:49:04,VALID,915.56,VALID,0,VALID,93.9967,VALID,0,VALID,21.008,VALID,333,VALID,0,
2012-05-16, 03:50:04,VALID,915.549,VALID,0,VALID,93.9357,VALID,0,VALID,21.008,VALID,333,VALID,0,
2012-05-16, 03:51:04,VALID,915.556,VALID,0,VALID,93.9357,VALID,0,VALID,20.9885,VALID,333,VALID,0,
2012-05-16, 03:52:04,VALID,915.55,VALID,0,VALID,93.9815,VALID,0,VALID,20.969,VALID,333,VALID,0,
2012-05-16, 03:53:04,VALID,915.528,VALID,0,VALID,93.951,VALID,0,VALID,20.9885,VALID,356,VALID,0,
2012-05-16, 03:54:04,VALID,915.563,VALID,0,VALID,93.951,VALID,0,VALID,20.969,VALID,356,VALID,0,
2012-05-16, 03:55:04,VALID,915.573,VALID,0,VALID,93.9586,VALID,0,VALID,20.9885,VALID,356,VALID,0,
2012-05-16, 03:56:04,VALID,915.555,VALID,0,VALID,93.9205,VALID,0,VALID,20.9885,VALID,356,VALID,0,
2012-05-16, 03:57:04,VALID,915.516,VALID,0,VALID,93.9281,VALID,0,VALID,20.969,VALID,356,VALID,0,
2012-05-16, 03:58:04,VALID,915.495,VALID,0,VALID,94.0043,VALID,0,VALID,20.9885,VALID,356,VALID,0,
2012-05-16, 03:59:04,VALID,915.47,VALID,0,VALID,93.9434,VALID,0,VALID,20.9885,VALID,356,VALID,0,